Regional Weather Roundup
Issued by NWS

Home | Current Version | Previous Version | Text Only | Print | Product List | Glossary Off
Versions: 1 2 3 4 5 6 7 8 9 10 11 12 13 14 15 16 17 18 19 20 21 22 23 24 25 26 27 28 29 30 31 32 33 34 35 36 37 38 39 40 41 42 43 44 45 46 47 48 49 50

368
ASUS43 KMKX 212307
RWRWI

WISCONSIN REGIONAL WEATHER ROUNDUP
NATIONAL WEATHER SERVICE MILWAUKEE/SULLIVAN WI
600 PM CDT THU MAY 21 2015

NOTE: "FAIR" INDICATES FEW OR NO CLOUDS BELOW 12,000 FEET WITH NO
SIGNIFICANT WEATHER AND/OR OBSTRUCTIONS TO VISIBILITY.

WIZ001-002-006>008-014>016-023>028-220000-
NORTHWEST WISCONSIN

CITY           SKY/WX    TMP DP  RH WIND       PRES   REMARKS
SUPERIOR ARPT  SUNNY     69  30  23 N15       30.00S
ASHLAND        SUNNY     65  34  31 N3        30.01S
HAYWARD        SUNNY     67  26  21 N7        30.00S
SIREN          SUNNY     70  26  19 NW16      30.02S
CUMBERLAND     SUNNY     68  32  26 N10G16    30.00F
RICE LAKE      SUNNY     70  29  22 N10G17    30.01S
CHETEK         SUNNY     68  33  27 NW8G21    30.00S
LADYSMITH      SUNNY     68  32  26 N16       30.01R
EAU CLAIRE     NOT AVBL
MENOMONIE      MOSUNNY   73  34  24 NW12G17   29.98S
NEW RICHMOND   SUNNY     71  29  21 NW14G22   30.02S
OSCEOLA        SUNNY     71  34  25 N13       30.04S
$$

WIZ003>005-009-010-017-018-220000-
NORTH CENTRAL WISCONSIN

CITY           SKY/WX    TMP DP  RH WIND       PRES   REMARKS
MANITOWISH WTR SUNNY     60  29  30 NW12G18   30.01S
ARBOR VITAE    SUNNY     62  27  26 NW14G20   30.00S
WOODRUFF       SUNNY     62  27  26 NW14G20   30.00S
RHINELANDER    SUNNY     62  25  24 N10G21    30.00R
EAGLE RIVER    SUNNY     61  22  22 N13G20    29.99S
LAND O LAKES   SUNNY     60  25  26 N10G17    30.01S
PHILLIPS       SUNNY     63  31  30 N12       30.00R
TOMAHAWK       SUNNY     64  26  23 N10G17    30.00R
MEDFORD        SUNNY     65  34  31 N16G22    29.97R
MERRILL        SUNNY     67  32  27 N16G24    29.97R
$$

WIZ029-030-035-036-043>047-220000-
CENTRAL WISCONSIN

CITY           SKY/WX    TMP DP  RH WIND       PRES   REMARKS
WAUSAU         MOSUNNY   69  33  26 N12G21    29.93R
MOSINEE        MOSUNNY   70  36  28 NW12G17   29.95R
MARSHFIELD     MOSUNNY   70  35  27 NW17      29.95S
STEVENS POINT  MOSUNNY   70  33  25 NW10G18   29.93S
WAUPACA        MOSUNNY   75  31  20 W12G18    29.92S
WAUTOMA        NOT AVBL
WISC RAPIDS    MOSUNNY   73  31  21 NW20      29.94F
CAMP DOUGLAS   NOT AVBL
$$

WIZ011>013-019>022-031-037>040-048>050-220000-
NORTHEAST WISCONSIN

CITY           SKY/WX    TMP DP  RH WIND       PRES   REMARKS
ANTIGO         MOSUNNY   66  33  29 NW16G26   29.95R
SHAWANO        PTSUNNY   69  37  31 W12       29.91S
OCONTO         CLOUDY    55  45  69 NE7       29.94R
STURGEON BAY   PTSUNNY   55  34  44 NE12      29.99R
GREEN BAY      CLOUDY    61  46  57 NE14      29.93S
MANITOWOC      NOT AVBL
APPLETON       PTSUNNY   68  32  26 NW15G22   29.92S
CLINTONVILLE   MOSUNNY   72  32  23 W16G22    29.91S
OSHKOSH        MOSUNNY   71  38  29 W6        29.91F
$$

WIZ032>034-041-042-053>061-220000-
SOUTHWEST WISCONSIN

CITY           SKY/WX    TMP DP  RH WIND       PRES   REMARKS
LA CROSSE      SUNNY     74  37  26 NW12      29.97R
SPARTA         SUNNY     73  32  22 W12G20    29.97R
VIROQUA        MOSUNNY   72  34  25 NW15G21   29.98S
BOSCOBEL       PTSUNNY   75  44  33 SW9       29.96F
PRAIRIE DU CHI SUNNY     74  28  17 W16G24    29.97S
PLATTEVILLE    SUNNY     71  41  34 W15       30.00F
$$

WIZ056-057-062-063-064-067-068-220000-
SOUTH CENTRAL WISCONSIN

CITY           SKY/WX    TMP DP  RH WIND       PRES   REMARKS
REEDSBURG      MOSUNNY   71  41  33 SW8       29.95F
BARABOO/DELLS  MOSUNNY   70  35  27 W13G20    29.96F
LONE ROCK      NOT AVBL
MINERAL POINT  SUNNY     72  37  28 SW12G20   30.00F
MADISON        MOSUNNY   71  35  26 W10G20    29.96F
MIDDLETON      MOSUNNY   73  31  21 W12       29.98F
WATERTOWN      SUNNY     69  39  33 W13       29.96F
MONROE         SUNNY     68  39  34 SW16G23   30.01S
JANESVILLE     SUNNY     72  36  26 W12G17    29.99F
$$

WIZ051-052-058>065-066-070>072-220000-
SOUTHEAST WISCONSIN

CITY           SKY/WX    TMP DP  RH WIND       PRES   REMARKS
MILWAUKEE      MOSUNNY   71  32  23 W8G22     29.96F
WAUKESHA       MOSUNNY   68  34  28 W13G18    29.97F
MILWAUKEE/TIMM MOSUNNY   70  30  23 W15G22    29.96F
RACINE         SUNNY     71  34  25 W10       29.98F
BURLINGTON     SUNNY     68  35  29 W9        29.98F
KENOSHA        SUNNY     69  38  32 W13       29.98F
FOND DU LAC    MOSUNNY   73  34  23 W13G23    29.92F
SHEBOYGAN      MOSUNNY   70  36  28 W18G28    29.92S
WEST BEND      PTSUNNY   72  34  25 SW13      29.94F
JUNEAU         PTSUNNY   68  37  31 W12G24    29.96F
$$

LSZ147-162-220000-
LAKE SUPERIOR

STATION/POSITION TIME  TEMP    WIND        PRES    WAVE
                       AIR SEA DIR/SP/G            HT/PER
                 (UTC) (F)     (DEG/KT/KT) (MB)    (FT/S)
W MID LAKE BUOY  2150   40 37  220/  8/  8   N/A     0
DEVILS ISLAND    2200   57     220/  4/  5   N/A
PORT WING        2200   53      40/  3/  4   N/A
SAXON HARBOR     2240   58      50/  3/  4   N/A
$$

LMZ867-665-643>646-220000-
LAKE MICHIGAN

STATION/POSITION TIME  TEMP    WIND        PRES    WAVE
                       AIR SEA DIR/SP/G            HT/PER
                 (UTC) (F)     (DEG/KT/KT) (MB)    (FT/S)
CHAMBERS ISLAND  2200   55      40/ 16/ 24   N/A
N MID LAKE BUOY  2150   44 36  360/ 10/ 12   N/A     1/ 3
NORTHPORT PIER   2200   57      30/ 12/ 16   N/A
SISTER BAY       2202   60     100/ 10/ 16   N/A
KEWAUNEE LAKESHO 2200           30/ 10/ 15   N/A
SHEBOYGAN LAKESH 2200   71     260/ 16/ 20   N/A
PORT WASHINGTON  2240   72     260/  8/ 16   N/A
ATWATER BUOY     2200   64 44  250/  8/ 10   N/A
MILWAUKEE LAKESH 2200   69     270/ 13/ 17   N/A
S MID LAKE BUOY  2150   44 38  190/ 14/ 16   N/A     1/ 3
KENOSHA   LAKESH 2200   69     260/ 12/ 17   N/A
$$

TC  - TEMPERATURE IN CELSIUS
VSB - VISIBILITY IN STATUTE MILES
WCI - WIND CHILL INDEX
HX  - HEAT INDEX




USA.gov is the U.S. government's official web portal to all federal, state and local government web resources and services.